Flag for Canada Weather past 2 weeks in Quesnel, British Columbia, Canada

Now
57 °F

Sunny.


Feels Like: 57 °F
Forecast: 50 / 77 °F
Wind: 2 mph from North

Location: Quesnel Airport

Current Time: Jul 4, 2015 at 8:54:19 AM

Latest Report: Jul 4, 2015 at 8:00 AM


Visibility: 9 mi

Pressure: 30.06 "Hg

Humidity: 63%

Dew point: 45 °F

Location of QuesnelLocation

Historic Weather in Quesnel — Graph

°F

Quesnel temperature yesterday

Maximum temperature yesterday: 84 °F (at 5:00 PM)
Minimum temperature yesterday: 55 °F (at 4:00 AM)
Average temperature yesterday: 71 °F

Past Weeks' High & Low Weather Summary

 TemperatureHumidityPressure
High90 °F (Jun 28, 4:00 PM)100% (Jun 19, 8:00 AM)30.25 "Hg (Jun 19, 8:00 AM)
Low41 °F (Jun 21, 4:00 AM)14% (Jul 3, 5:00 PM)29.86 "Hg (Jul 3, 8:00 PM)
Average64 °F66%30.05 "Hg
* Reported Jun 19 8:00 AM — Jul 4 8:00 AM, Quesnel, Weather by CustomWeather, © 2015

Note: Actual official high and low records may vary slightly from our data, if they occured in-between our weather recording intervals... More about our weather records

Advertising

Quesnel weather history for previous 24 hours

 ConditionsComfort  
Time TempWeatherWind HumidityBarometerVisibility
8:00 AM
Sat, Jul 4
57 °FSunny.2 mph63%30.06 "Hg9 mi
7:00 AM50 °FSunny.No wind82%30.05 "Hg9 mi
6:00 AM45 °FSunny.No wind87%30.05 "Hg9 mi
5:00 AM46 °FClear.No wind82%30.04 "Hg9 mi
4:00 AM46 °FClear.No wind82%30.03 "Hg9 mi
3:00 AM48 °FClear.No wind71%30.01 "Hg9 mi
2:00 AM52 °FClear.2 mph67%30.00 "Hg9 mi
1:00 AM57 °FClear.2 mph51%29.98 "Hg9 mi
12:00 AM55 °FClear.5 mph55%29.97 "Hg9 mi
11:00 PM
Fri, Jul 3
59 °FClear.2 mph55%29.95 "Hg9 mi
10:00 PM64 °FSunny.6 mph40%29.93 "Hg9 mi
9:00 PM73 °FSunny.8 mph27%29.89 "Hg9 mi
8:00 PM81 °FSunny.2 mph23%29.86 "Hg9 mi
7:00 PM84 °FSunny.5 mph14%29.87 "Hg9 mi
6:00 PM84 °FSunny.5 mph14%29.89 "Hg9 mi
5:00 PM84 °FSunny.3 mph14%29.91 "Hg9 mi
4:00 PM82 °FSunny.2 mph16%29.95 "Hg9 mi
3:00 PM81 °FSunny.6 mph18%29.97 "Hg9 mi
2:00 PM79 °FSunny.6 mph20%30.00 "Hg9 mi
1:00 PM77 °FSunny.5 mph21%30.02 "Hg9 mi
12:00 PM75 °FSunny.3 mph27%30.04 "Hg9 mi
11:00 AM73 °FSunny.7 mph29%30.06 "Hg9 mi
10:00 AM72 °FSunny.7 mph31%30.07 "Hg9 mi
9:00 AM70 °FSunny.10 mph33%30.08 "Hg9 mi
8:00 AM68 °FSunny.7 mph40%30.07 "Hg9 mi
Weather by CustomWeather, © 2015

See weather overviewHow to use our weather pages